Weather in Ekaterininka

Russia / Sverdlovsk Oblast     60°25′10″N   60°25′48″E
temp.,
°C
wind,
m/s
gust,
m/s
humid.,
%
clouds,
%
prec.,
mm/h
press.,
hPa
HPBL,
m
26 july, mon
mon2623:00+9w268070 0.0 1015115
02:00+11sw2572100 0.0 1015134
05:00+11wsw2567100 0.0 1015130
08:00+15w385796 0.0 1014574
11:00+18wnw4643100 0.0 10142220
14:00+19wnw3643100 0.0 10132136
17:00+20w364284 0.0 10122121
20:00+14wnw258144 0.3 1011109
27 july, tue
tue2723:00+11wsw22915 0.3 101025
02:00+12ssw288591 0.0 1008240
05:00+12w2697100 1.2 1006359
08:00+12wnw510885 0.8 1007747
11:00+15wnw575193 1.1 10071836
14:00+15wnw5749100 0.0 10082044
17:00+14wnw585183 0.1 10081776
20:00+10wnw5107072 0.1 10091101
28 july, wed
wed2823:00+9wnw497789 0.1 10081146
02:00+7w31084100 0.1 1007613
05:00+7w3782100 0.1 1007566
08:00+8nw377394 0.1 1007897
11:00+12wnw465390 0.3 10071708
14:00+12wnw475670 0.1 10081296
17:00+13wnw685740 0.4 10081467
20:00+11wnw596499 0.3 10081131
29 july, thu
thu2923:00+8wnw41075100 0.3 1008604
02:00+6w288572 0.0 1008217
05:00+6wsw2486100 0.0 100788
08:00+10w366984 0.0 1007701
11:00+12w3458100 0.0 10071230
14:00+14wnw355294 0.1 10061598
17:00+15n2451100 0.1 1005865
20:00+12ese1164100 0.0 100522
30 july, fri
fri3023:00+11s2269100 0.0 100533
02:00+7wsw128499 0.0 100531
05:00+6wnw119350 0.0 100510
08:00+13nnw126794 0.0 1005272
11:00+18nne0251100 0.0 10041175
14:00+20sse2347100 0.0 10031337
17:00+16ese1166100 0.0 100337
20:00+16ne1273100 0.0 100340